Location: Lecco
(45.8566°N, 9.3977°E)
Time: 05:38:51
(UTC+02:00)

S-56A Canister/Altair - Pass Details

Date: 24 July 2019
Orbit: 633 x 2499 km, 38.9° (Epoch: 21 August)

Event Time Altitude Azimuth Distance (km) Brightness Sun altitude
Rises 08:10:03 0° 243° (WSW) 4,887 11.1 21.2°
Reaches altitude 10° 08:12:58 10° 240° (WSW) 4,121 10.8 21.7°
Maximum altitude 08:24:20 60° 165° (SSE) 2,503 10.6 23.6°
Drops below altitude 10° 08:38:54 10° 91° (E) 5,164 13.6 26.2°
Sets 08:43:01 0° 88° (E) 6,163 13.5 26.9°
